Weather History for Bishop, CA

Change the Weather History Date:

Wednesday, January 1, 2014

  Actual Average Record
Temperature  
Mean Temperature 45 °F 37 °F  
Max Temperature 67 °F 53 °F 70 °F (1959)
Min Temperature 22 °F 22 °F 8 °F (1965)
Degree Days  
Heating Degree Days 20 28  
Month to date heating degree days 20 28  
Since 1 July heating degree days 1828 1775  
Cooling Degree Days 0 0  
Month to date cooling degree days 0 0  
Year to date cooling degree days 0 0  
Moisture  
Dew Point 12 °F    
Average Humidity 34    
Maximum Humidity 55    
Minimum Humidity 13    
Precipitation  
Precipitation 0.00 in 0.05 in 0.91 in (1997)
Month to date precipitation 0.00 0.05  
Year to date precipitation 0.00 0.05  
Snow  
Snow 0.00 in 0.10 in 7.00 in (1955)
Month to date snowfall 0.0 0.1  
Since 1 July snowfall 0.5 1.8  
Snow Depth 0.00 in    
Sea Level Pressure  
Sea Level Pressure 30.25 in    
Wind  
Wind Speed 5 mph (NW)    
Max Wind Speed 12 mph    
Max Gust Speed 21 mph    
Visibility 10 miles    
Events      
T = Trace of Precipitation, MM = Missing Value Source: NWS Daily Summary

Daily Weather History Graph

Daily Weather History Graph

Search for Another Location

Airport:

Trip Planner

Search our weather history database for the weather conditions in past years. The results will help you decide how hot, cold, wet, or windy it might be!

Date:

Astronomy

Jan. 01, 2014 Rise Set
Actual Time 7:07 AM PST 4:46 PM PST
Civil Twilight 6:38 AM PST 5:15 PM PST
Nautical Twilight 6:06 AM PST 5:48 PM PST
Astronomical Twilight 5:34 AM PST 6:20 PM PST
Moon 7:03 AM PST (1/1) 5:35 PM PST (1/1)
Length of Visible Light 10h 36m
Length of Day
9h 38m
New Moon, 0% of the Moon is Illuminated
Jan 1
New Moon
Jan 7
First Quarter
Jan 15
Full
Jan 23
Last Quarter
Jan 30
New

Hourly Weather History & Observations

Time (PST) Temp. Windchill Dew Point Humidity Pressure Visibility Wind Dir Wind Speed Gust Speed Precip Events Conditions
12:56 AM 27.0 °F 19.5 °F 5.0 °F 39% 30.24 in 10.0 mi NW 6.9 mph - N/A   Clear
1:56 AM 24.1 °F 16.0 °F 5.0 °F 44% 30.25 in 10.0 mi North 6.9 mph - N/A   Clear
2:56 AM 26.1 °F 17.6 °F 7.0 °F 44% 30.25 in 10.0 mi NNW 8.1 mph - N/A   Clear
3:56 AM 24.1 °F 17.0 °F 6.1 °F 46% 30.25 in 10.0 mi NNW 5.8 mph - N/A   Clear
4:56 AM 26.1 °F 17.6 °F 9.0 °F 49% 30.27 in 10.0 mi North 8.1 mph - N/A   Clear
5:56 AM 25.0 °F 18.1 °F 10.0 °F 53% 30.30 in 10.0 mi NNW 5.8 mph - N/A   Clear
6:56 AM 26.1 °F 18.4 °F 10.0 °F 51% 30.33 in 10.0 mi NNW 6.9 mph - N/A   Clear
7:56 AM 28.9 °F 20.4 °F 10.9 °F 47% 30.35 in 10.0 mi NW 9.2 mph - N/A   Clear
8:56 AM 44.1 °F 40.8 °F 12.9 °F 28% 30.34 in 10.0 mi NNE 5.8 mph - N/A   Clear
9:56 AM 51.1 °F - 15.1 °F 24% 30.33 in 10.0 mi North 3.5 mph - N/A   Clear
10:56 AM 59.0 °F - 15.1 °F 18% 30.27 in 10.0 mi WNW 3.5 mph - N/A   Clear
11:56 AM 61.0 °F - 15.1 °F 17% 30.23 in 10.0 mi NW 4.6 mph - N/A   Clear
12:56 PM 62.1 °F - 16.0 °F 17% 30.19 in 10.0 mi WNW 3.5 mph - N/A   Clear
1:56 PM 64.0 °F - 14.0 °F 14% 30.18 in 10.0 mi Calm Calm - N/A   Clear
2:56 PM 66.0 °F - 16.0 °F 15% 30.17 in 10.0 mi Calm Calm - N/A   Clear
3:56 PM 64.9 °F - 17.1 °F 16% 30.17 in 10.0 mi Calm Calm - N/A   Clear
4:56 PM 54.0 °F - 14.0 °F 21% 30.20 in 10.0 mi South 5.8 mph - N/A   Clear
5:56 PM 52.0 °F - 16.0 °F 24% 30.22 in 10.0 mi South 5.8 mph - N/A   Clear
6:56 PM 39.0 °F - 10.9 °F 32% 30.26 in 10.0 mi Calm Calm - N/A   Clear
7:56 PM 33.1 °F 26.1 °F 9.0 °F 37% 30.28 in 10.0 mi NW 8.1 mph - N/A   Clear
8:56 PM 33.1 °F 26.9 °F 10.9 °F 40% 30.26 in 10.0 mi NNW 6.9 mph - N/A   Clear
9:56 PM 30.9 °F 25.2 °F 10.9 °F 43% 30.26 in 10.0 mi NW 5.8 mph - N/A   Clear
10:56 PM 32.0 °F 25.6 °F 12.0 °F 44% 30.24 in 10.0 mi WNW 6.9 mph - N/A   Clear
11:56 PM 30.0 °F 23.2 °F 12.0 °F 47% 30.24 in 10.0 mi North 6.9 mph - N/A   Clear